,,,PA_Meas_PMT16A,,PR_Meas_QMR101_102,,RH_Meas_QMH101,,SR_Meas_QMS101,,TA_Meas_QMH101,,GenWind,,GenWind,
date,time,status,PA,status,PR,status,RH,status,SR,status,TA,status,DirAvg,status,SpdAvg,
2010-02-19, 00:00:05,VALID,1011.92,VALID,0,VALID,89.8543,VALID,0,VALID,24.2591,VALID,179,VALID,0,
2010-02-19, 00:01:05,VALID,1011.9,VALID,0,VALID,89.8543,VALID,0,VALID,24.2396,VALID,179,VALID,0,
2010-02-19, 00:02:05,VALID,1011.87,VALID,0,VALID,89.8543,VALID,0,VALID,24.2183,VALID,179,VALID,0,
2010-02-19, 00:03:05,VALID,1011.87,VALID,0,VALID,89.8543,VALID,0,VALID,24.2396,VALID,179,VALID,0,
2010-02-19, 00:04:05,VALID,1011.82,VALID,0,VALID,89.8848,VALID,0,VALID,24.2396,VALID,179,VALID,0,
2010-02-19, 00:05:05,VALID,1011.81,VALID,0,VALID,89.8619,VALID,0,VALID,24.2202,VALID,179,VALID,0,
2010-02-19, 00:06:05,VALID,1011.79,VALID,0,VALID,89.8771,VALID,0,VALID,24.2202,VALID,179,VALID,0,
2010-02-19, 00:07:05,VALID,1011.75,VALID,0,VALID,89.8695,VALID,0,VALID,24.2202,VALID,179,VALID,0,
2010-02-19, 00:08:05,VALID,1011.73,VALID,0,VALID,89.8695,VALID,0,VALID,24.2202,VALID,179,VALID,0,
2010-02-19, 00:09:05,VALID,1011.7,VALID,0,VALID,89.8848,VALID,0,VALID,24.2202,VALID,179,VALID,0,
2010-02-19, 00:10:05,VALID,1011.71,VALID,0,VALID,89.8695,VALID,0,VALID,24.2202,VALID,179,VALID,0,
2010-02-19, 00:11:05,VALID,1011.68,VALID,0,VALID,89.8543,VALID,0,VALID,24.2007,VALID,179,VALID,0,
2010-02-19, 00:12:05,VALID,1011.69,VALID,0,VALID,89.9,VALID,0,VALID,24.1812,VALID,179,VALID,0,
2010-02-19, 00:13:05,VALID,1011.68,VALID,0,VALID,89.9076,VALID,0,VALID,24.1404,VALID,179,VALID,0,
2010-02-19, 00:14:05,VALID,1011.7,VALID,0,VALID,89.8771,VALID,0,VALID,24.1617,VALID,179,VALID,0,
2010-02-19, 00:15:05,VALID,1011.72,VALID,0,VALID,89.8695,VALID,0,VALID,24.1812,VALID,179,VALID,0,
2010-02-19, 00:16:05,VALID,1011.68,VALID,0,VALID,89.9,VALID,0,VALID,24.1812,VALID,179,VALID,0,
2010-02-19, 00:17:05,VALID,1011.68,VALID,0,VALID,89.8924,VALID,0,VALID,24.1812,VALID,175,VALID,0,
2010-02-19, 00:18:05,VALID,1011.66,VALID,0,VALID,89.8848,VALID,0,VALID,24.1812,VALID,172,VALID,0,
2010-02-19, 00:19:05,VALID,1011.64,VALID,0,VALID,89.8695,VALID,0,VALID,24.1812,VALID,170,VALID,0,
2010-02-19, 00:20:05,VALID,1011.6,VALID,0,VALID,89.8848,VALID,0,VALID,24.1812,VALID,170,VALID,0,
2010-02-19, 00:21:05,VALID,1011.59,VALID,0,VALID,89.8695,VALID,0,VALID,24.1812,VALID,170,VALID,0,
2010-02-19, 00:22:05,VALID,1011.55,VALID,0,VALID,89.8619,VALID,0,VALID,24.1793,VALID,170,VALID,0,
2010-02-19, 00:23:05,VALID,1011.56,VALID,0,VALID,89.8771,VALID,0,VALID,24.2007,VALID,170,VALID,0,
2010-02-19, 00:24:05,VALID,1011.53,VALID,0,VALID,89.8619,VALID,0,VALID,24.1793,VALID,180,VALID,0,
2010-02-19, 00:25:05,VALID,1011.51,VALID,0,VALID,89.8771,VALID,0,VALID,24.2007,VALID,180,VALID,0,
2010-02-19, 00:26:05,VALID,1011.51,VALID,0,VALID,89.8695,VALID,0,VALID,24.1812,VALID,180,VALID,0,
2010-02-19, 00:27:05,VALID,1011.48,VALID,0,VALID,89.8695,VALID,0,VALID,24.1812,VALID,180,VALID,0,
2010-02-19, 00:28:05,VALID,1011.48,VALID,0,VALID,89.8695,VALID,0,VALID,24.2007,VALID,180,VALID,0,
2010-02-19, 00:29:05,VALID,1011.51,VALID,0,VALID,89.8695,VALID,0,VALID,24.2007,VALID,179,VALID,0,
2010-02-19, 00:30:05,VALID,1011.51,VALID,0,VALID,89.8848,VALID,0,VALID,24.1793,VALID,177,VALID,0,
2010-02-19, 00:31:05,VALID,1011.49,VALID,0,VALID,89.8695,VALID,0,VALID,24.1812,VALID,177,VALID,0,
2010-02-19, 00:32:05,VALID,1011.48,VALID,0,VALID,89.8771,VALID,0,VALID,24.1812,VALID,177,VALID,0,
2010-02-19, 00:33:05,VALID,1011.47,VALID,0,VALID,89.8619,VALID,0,VALID,24.1617,VALID,171,VALID,0,
2010-02-19, 00:34:05,VALID,1011.43,VALID,0,VALID,89.8848,VALID,0,VALID,24.1812,VALID,180,VALID,0,
2010-02-19, 00:35:05,VALID,1011.4,VALID,0,VALID,89.8619,VALID,0,VALID,24.1812,VALID,180,VALID,0,
2010-02-19, 00:36:05,VALID,1011.4,VALID,0,VALID,89.8619,VALID,0,VALID,24.1617,VALID,180,VALID,0,
2010-02-19, 00:37:05,VALID,1011.42,VALID,0,VALID,89.9,VALID,0,VALID,24.1227,VALID,175,VALID,0,
2010-02-19, 00:38:05,VALID,1011.39,VALID,0,VALID,89.9,VALID,0,VALID,24.1227,VALID,205,VALID,0,
2010-02-19, 00:39:05,VALID,1011.39,VALID,0,VALID,89.8924,VALID,0,VALID,24.1227,VALID,208,VALID,0,
2010-02-19, 00:40:05,VALID,1011.38,VALID,0,VALID,89.9153,VALID,0,VALID,24.1032,VALID,190,VALID,0,
2010-02-19, 00:41:05,VALID,1011.34,VALID,0,VALID,89.9305,VALID,0.105969,VALID,24.0819,VALID,177,VALID,0,
2010-02-19, 00:42:05,VALID,1011.33,VALID,0,VALID,89.9458,VALID,0,VALID,24.1032,VALID,173,VALID,0,
2010-02-19, 00:43:05,VALID,1011.28,VALID,0,VALID,89.9076,VALID,0,VALID,24.0837,VALID,172,VALID,0,
2010-02-19, 00:44:05,VALID,1011.24,VALID,0,VALID,89.9153,VALID,0,VALID,24.0837,VALID,172,VALID,0,
2010-02-19, 00:45:05,VALID,1011.22,VALID,0,VALID,89.9076,VALID,0,VALID,24.0819,VALID,172,VALID,0,
2010-02-19, 00:46:05,VALID,1011.18,VALID,0,VALID,89.9153,VALID,0.105969,VALID,24.1032,VALID,188,VALID,0,
2010-02-19, 00:47:05,VALID,1011.11,VALID,0,VALID,89.9229,VALID,0,VALID,24.0624,VALID,188,VALID,0,
2010-02-19, 00:48:05,VALID,1011.1,VALID,0,VALID,89.8848,VALID,0,VALID,24.0624,VALID,188,VALID,0,
2010-02-19, 00:49:05,VALID,1011.06,VALID,0,VALID,89.9153,VALID,0,VALID,24.0624,VALID,187,VALID,0,
2010-02-19, 00:50:05,VALID,1011.04,VALID,0,VALID,89.9,VALID,0.105969,VALID,24.0624,VALID,186,VALID,0,
2010-02-19, 00:51:05,VALID,1010.99,VALID,0,VALID,89.9076,VALID,0.105969,VALID,24.0624,VALID,186,VALID,0,
2010-02-19, 00:52:05,VALID,1011,VALID,0,VALID,89.9153,VALID,0.105969,VALID,24.0624,VALID,186,VALID,0,
2010-02-19, 00:53:05,VALID,1010.98,VALID,0,VALID,89.9229,VALID,0,VALID,24.0429,VALID,186,VALID,0,
2010-02-19, 00:54:05,VALID,1010.95,VALID,0,VALID,89.9229,VALID,0.105969,VALID,24.0837,VALID,186,VALID,0,
2010-02-19, 00:55:05,VALID,1010.95,VALID,0,VALID,89.9,VALID,0.105969,VALID,24.0837,VALID,186,VALID,0,
2010-02-19, 00:56:05,VALID,1010.96,VALID,0,VALID,89.9381,VALID,0.105969,VALID,24.0429,VALID,186,VALID,0,
2010-02-19, 00:57:05,VALID,1010.95,VALID,0,VALID,89.9381,VALID,0,VALID,24.0643,VALID,186,VALID,0,
2010-02-19, 00:58:05,VALID,1010.95,VALID,0,VALID,89.9,VALID,0.105969,VALID,24.0643,VALID,186,VALID,0,
2010-02-19, 00:59:05,VALID,1010.94,VALID,0,VALID,89.9153,VALID,0,VALID,24.0429,VALID,186,VALID,0,
2010-02-19, 01:00:05,VALID,1010.91,VALID,0,VALID,89.9381,VALID,0.105969,VALID,24.0235,VALID,186,VALID,0,
2010-02-19, 01:01:05,VALID,1010.9,VALID,0,VALID,89.9381,VALID,0.105969,VALID,24.0235,VALID,186,VALID,0,
2010-02-19, 01:02:05,VALID,1010.9,VALID,0,VALID,89.9458,VALID,0.105969,VALID,24.0448,VALID,186,VALID,0,
2010-02-19, 01:03:05,VALID,1010.85,VALID,0,VALID,89.9305,VALID,0.105969,VALID,24.0448,VALID,186,VALID,0,
2010-02-19, 01:04:05,VALID,1010.84,VALID,0,VALID,89.9458,VALID,0.105969,VALID,24.0235,VALID,186,VALID,0,
2010-02-19, 01:05:05,VALID,1010.82,VALID,0,VALID,89.9153,VALID,0.105969,VALID,24.0448,VALID,186,VALID,0,
2010-02-19, 01:06:05,VALID,1010.8,VALID,0,VALID,89.8924,VALID,0.105969,VALID,24.0429,VALID,186,VALID,0,
2010-02-19, 01:07:05,VALID,1010.81,VALID,0,VALID,89.9076,VALID,0,VALID,24.0429,VALID,186,VALID,0,
2010-02-19, 01:08:05,VALID,1010.8,VALID,0,VALID,89.9076,VALID,0.105969,VALID,24.0429,VALID,186,VALID,0,
2010-02-19, 01:09:05,VALID,1010.76,VALID,0,VALID,89.8924,VALID,0,VALID,24.0643,VALID,186,VALID,0,
2010-02-19, 01:10:05,VALID,1010.76,VALID,0,VALID,89.9076,VALID,0,VALID,24.0235,VALID,186,VALID,0,
2010-02-19, 01:11:05,VALID,1010.74,VALID,0,VALID,89.9229,VALID,0.105969,VALID,24.0429,VALID,186,VALID,0,
2010-02-19, 01:12:05,VALID,1010.72,VALID,0,VALID,89.9,VALID,0.105969,VALID,24.0643,VALID,186,VALID,0,
2010-02-19, 01:13:05,VALID,1010.7,VALID,0,VALID,89.8924,VALID,0.105969,VALID,24.0837,VALID,186,VALID,0,
2010-02-19, 01:14:05,VALID,1010.69,VALID,0,VALID,89.9,VALID,0.105969,VALID,24.0837,VALID,186,VALID,0,
2010-02-19, 01:15:05,VALID,1010.68,VALID,0,VALID,89.9153,VALID,0.105969,VALID,24.0235,VALID,186,VALID,0,
2010-02-19, 01:16:05,VALID,1010.69,VALID,0,VALID,89.9229,VALID,0.105969,VALID,24.0235,VALID,186,VALID,0,
2010-02-19, 01:17:05,VALID,1010.68,VALID,0,VALID,89.9381,VALID,0.105969,VALID,24.0058,VALID,186,VALID,0,
2010-02-19, 01:18:05,VALID,1010.63,VALID,0,VALID,89.9381,VALID,0,VALID,23.9845,VALID,186,VALID,0,
2010-02-19, 01:19:05,VALID,1010.61,VALID,0,VALID,89.9305,VALID,0,VALID,24.0058,VALID,186,VALID,0,
2010-02-19, 01:20:04,VALID,1010.57,VALID,0,VALID,89.9076,VALID,0,VALID,23.9845,VALID,186,VALID,0,
2010-02-19, 01:21:04,VALID,1010.55,VALID,0,VALID,89.9229,VALID,0,VALID,23.9863,VALID,186,VALID,0,
2010-02-19, 01:22:04,VALID,1010.53,VALID,0,VALID,89.9229,VALID,0,VALID,23.9863,VALID,186,VALID,0,
2010-02-19, 01:23:04,VALID,1010.51,VALID,0,VALID,89.9534,VALID,0,VALID,23.9473,VALID,131,VALID,0,
2010-02-19, 01:24:04,VALID,1010.5,VALID,0,VALID,89.9458,VALID,0,VALID,23.9473,VALID,66,VALID,0,
2010-02-19, 01:25:04,VALID,1010.5,VALID,0,VALID,89.9763,VALID,0.105969,VALID,23.8871,VALID,64,VALID,0,
2010-02-19, 01:26:04,VALID,1010.46,VALID,0,VALID,89.9763,VALID,0,VALID,23.9084,VALID,63,VALID,0,
2010-02-19, 01:27:04,VALID,1010.41,VALID,0,VALID,89.9763,VALID,0,VALID,23.8889,VALID,63,VALID,0,
2010-02-19, 01:28:04,VALID,1010.42,VALID,0,VALID,89.9534,VALID,0.105969,VALID,23.8889,VALID,63,VALID,0,
2010-02-19, 01:29:04,VALID,1010.39,VALID,0,VALID,89.961,VALID,0.105969,VALID,23.8676,VALID,63,VALID,0,
2010-02-19, 01:30:04,VALID,1010.38,VALID,0,VALID,89.9458,VALID,0.105969,VALID,23.8676,VALID,63,VALID,0,
2010-02-19, 01:31:04,VALID,1010.34,VALID,0,VALID,89.9534,VALID,0.105969,VALID,23.8676,VALID,63,VALID,0,
2010-02-19, 01:32:04,VALID,1010.34,VALID,0,VALID,89.9534,VALID,0.105969,VALID,23.8676,VALID,63,VALID,0,
2010-02-19, 01:33:04,VALID,1010.32,VALID,0,VALID,89.9458,VALID,0.105969,VALID,23.8694,VALID,63,VALID,0,
2010-02-19, 01:34:04,VALID,1010.3,VALID,0,VALID,89.9381,VALID,0.105969,VALID,23.8481,VALID,63,VALID,0,
2010-02-19, 01:35:04,VALID,1010.28,VALID,0,VALID,89.9381,VALID,0.105969,VALID,23.8676,VALID,63,VALID,0,
2010-02-19, 01:36:04,VALID,1010.28,VALID,0,VALID,89.9305,VALID,0.105969,VALID,23.8871,VALID,63,VALID,0,
2010-02-19, 01:37:04,VALID,1010.27,VALID,0,VALID,89.8924,VALID,0.105969,VALID,23.9065,VALID,63,VALID,0,
2010-02-19, 01:38:04,VALID,1010.28,VALID,0,VALID,89.9,VALID,0,VALID,23.926,VALID,63,VALID,0,
2010-02-19, 01:39:04,VALID,1010.28,VALID,0,VALID,89.9153,VALID,0.105969,VALID,23.9473,VALID,63,VALID,0,
2010-02-19, 01:40:04,VALID,1010.27,VALID,0,VALID,89.8771,VALID,0,VALID,23.9473,VALID,63,VALID,0,
2010-02-19, 01:41:04,VALID,1010.29,VALID,0,VALID,89.8771,VALID,0.105969,VALID,23.926,VALID,63,VALID,0,
2010-02-19, 01:42:04,VALID,1010.25,VALID,0,VALID,89.8924,VALID,0,VALID,23.9278,VALID,63,VALID,0,
2010-02-19, 01:43:04,VALID,1010.22,VALID,0,VALID,89.8771,VALID,0,VALID,23.926,VALID,63,VALID,0,
2010-02-19, 01:44:04,VALID,1010.23,VALID,0,VALID,89.8848,VALID,0,VALID,23.9278,VALID,63,VALID,0,
2010-02-19, 01:45:04,VALID,1010.22,VALID,0,VALID,89.9,VALID,0,VALID,23.9473,VALID,63,VALID,0,
2010-02-19, 01:46:04,VALID,1010.19,VALID,0,VALID,89.8771,VALID,0,VALID,23.9278,VALID,63,VALID,0,
2010-02-19, 01:47:04,VALID,1010.18,VALID,0,VALID,89.9076,VALID,0,VALID,23.9065,VALID,63,VALID,0,
2010-02-19, 01:48:04,VALID,1010.13,VALID,0,VALID,89.9153,VALID,0,VALID,23.9278,VALID,63,VALID,0,
2010-02-19, 01:49:04,VALID,1010.11,VALID,0,VALID,89.9229,VALID,0,VALID,23.9065,VALID,63,VALID,0,
2010-02-19, 01:50:04,VALID,1010.13,VALID,0,VALID,89.9076,VALID,0,VALID,23.9065,VALID,63,VALID,0,
2010-02-19, 01:51:04,VALID,1010.11,VALID,0,VALID,89.9,VALID,0,VALID,23.9084,VALID,63,VALID,0,
2010-02-19, 01:52:04,VALID,1010.09,VALID,0,VALID,89.9229,VALID,0,VALID,23.9084,VALID,63,VALID,0,
2010-02-19, 01:53:04,VALID,1010.08,VALID,0,VALID,89.9229,VALID,0,VALID,23.9084,VALID,60,VALID,0,
2010-02-19, 01:54:04,VALID,1010.09,VALID,0,VALID,89.9381,VALID,0,VALID,23.8889,VALID,58,VALID,0,
2010-02-19, 01:55:04,VALID,1010.12,VALID,0,VALID,89.9305,VALID,0,VALID,23.8889,VALID,58,VALID,0,
2010-02-19, 01:56:04,VALID,1010.1,VALID,0,VALID,89.9305,VALID,0,VALID,23.8676,VALID,58,VALID,0,
2010-02-19, 01:57:04,VALID,1010.11,VALID,0,VALID,89.9229,VALID,0,VALID,23.8889,VALID,58,VALID,0,
2010-02-19, 01:58:04,VALID,1010.11,VALID,0,VALID,89.9076,VALID,0,VALID,23.9084,VALID,58,VALID,0,
2010-02-19, 01:59:04,VALID,1010.09,VALID,0,VALID,89.9076,VALID,0,VALID,23.8889,VALID,58,VALID,0,
2010-02-19, 02:00:04,VALID,1010.11,VALID,0,VALID,89.9153,VALID,0,VALID,23.8676,VALID,58,VALID,0,
2010-02-19, 02:01:04,VALID,1010.12,VALID,0,VALID,89.9076,VALID,0,VALID,23.8889,VALID,58,VALID,0,
2010-02-19, 02:02:04,VALID,1010.13,VALID,0,VALID,89.9076,VALID,0,VALID,23.9084,VALID,58,VALID,0,
2010-02-19, 02:03:04,VALID,1010.12,VALID,0,VALID,89.9076,VALID,0,VALID,23.8889,VALID,58,VALID,0,
2010-02-19, 02:04:04,VALID,1010.1,VALID,0,VALID,89.9153,VALID,0,VALID,23.9084,VALID,58,VALID,0,
2010-02-19, 02:05:04,VALID,1010.11,VALID,0,VALID,89.9,VALID,0,VALID,23.8889,VALID,58,VALID,0,
2010-02-19, 02:06:04,VALID,1010.1,VALID,0,VALID,89.9153,VALID,0,VALID,23.8676,VALID,58,VALID,0,
2010-02-19, 02:07:04,VALID,1010.09,VALID,0,VALID,89.9153,VALID,0,VALID,23.9084,VALID,58,VALID,0,
2010-02-19, 02:08:04,VALID,1010.1,VALID,0,VALID,89.9229,VALID,0,VALID,23.8676,VALID,58,VALID,0,
2010-02-19, 02:09:04,VALID,1010.13,VALID,0,VALID,89.9305,VALID,0,VALID,23.8676,VALID,58,VALID,0,
2010-02-19, 02:10:04,VALID,1010.15,VALID,0,VALID,89.9381,VALID,0,VALID,23.8481,VALID,58,VALID,0,
2010-02-19, 02:11:04,VALID,1010.14,VALID,0,VALID,89.9076,VALID,0,VALID,23.8676,VALID,58,VALID,0,
2010-02-19, 02:12:04,VALID,1010.1,VALID,0,VALID,89.8924,VALID,0,VALID,23.9084,VALID,58,VALID,0,
2010-02-19, 02:13:04,VALID,1010.11,VALID,0,VALID,89.8771,VALID,0,VALID,23.9084,VALID,58,VALID,0,
2010-02-19, 02:14:04,VALID,1010.12,VALID,0,VALID,89.9,VALID,0,VALID,23.9084,VALID,311,VALID,0,
2010-02-19, 02:15:04,VALID,1010.12,VALID,0,VALID,89.9076,VALID,0,VALID,23.8889,VALID,311,VALID,0,
2010-02-19, 02:16:04,VALID,1010.1,VALID,0,VALID,89.8924,VALID,0,VALID,23.8871,VALID,311,VALID,0,
2010-02-19, 02:17:04,VALID,1010.13,VALID,0,VALID,89.8848,VALID,0,VALID,23.8871,VALID,311,VALID,0,
2010-02-19, 02:18:04,VALID,1010.14,VALID,0,VALID,89.8848,VALID,0,VALID,23.9278,VALID,311,VALID,0,
2010-02-19, 02:19:04,VALID,1010.12,VALID,0,VALID,89.9153,VALID,0,VALID,23.8889,VALID,48,VALID,0,
2010-02-19, 02:20:04,VALID,1010.14,VALID,0,VALID,89.9153,VALID,0,VALID,23.8871,VALID,49,VALID,0,
2010-02-19, 02:21:04,VALID,1010.14,VALID,0,VALID,89.8695,VALID,0,VALID,23.9084,VALID,69,VALID,0,
2010-02-19, 02:22:04,VALID,1010.17,VALID,0,VALID,89.9076,VALID,0,VALID,23.9084,VALID,94,VALID,0,
2010-02-19, 02:23:04,VALID,1010.17,VALID,0,VALID,89.9076,VALID,0,VALID,23.9084,VALID,90,VALID,0,
2010-02-19, 02:24:04,VALID,1010.14,VALID,0,VALID,89.8924,VALID,0,VALID,23.9084,VALID,90,VALID,0,
2010-02-19, 02:25:04,VALID,1010.13,VALID,0,VALID,89.8924,VALID,0,VALID,23.9084,VALID,89,VALID,0,
2010-02-19, 02:26:04,VALID,1010.13,VALID,0,VALID,89.9076,VALID,0,VALID,23.8889,VALID,23,VALID,0,
2010-02-19, 02:27:04,VALID,1010.09,VALID,0,VALID,89.9381,VALID,0,VALID,23.8499,VALID,11,VALID,0,
2010-02-19, 02:28:04,VALID,1010.09,VALID,0,VALID,89.9458,VALID,0,VALID,23.8499,VALID,11,VALID,0,
2010-02-19, 02:29:04,VALID,1010.06,VALID,0,VALID,89.9076,VALID,0,VALID,23.8694,VALID,11,VALID,0,
2010-02-19, 02:30:04,VALID,1010.03,VALID,0,VALID,89.9229,VALID,0,VALID,23.8499,VALID,33,VALID,0,
2010-02-19, 02:31:04,VALID,1010.01,VALID,0,VALID,89.9381,VALID,0,VALID,23.8499,VALID,16,VALID,0,
2010-02-19, 02:32:04,VALID,1010.03,VALID,0,VALID,89.9153,VALID,0,VALID,23.8694,VALID,16,VALID,0,
2010-02-19, 02:33:04,VALID,1010.03,VALID,0,VALID,89.9229,VALID,0,VALID,23.8694,VALID,38,VALID,0,
2010-02-19, 02:34:04,VALID,1010.04,VALID,0,VALID,89.9458,VALID,0,VALID,23.8304,VALID,80,VALID,0,
2010-02-19, 02:35:04,VALID,1010.02,VALID,0,VALID,89.9153,VALID,0,VALID,23.8304,VALID,82,VALID,0,
2010-02-19, 02:36:04,VALID,1010.02,VALID,0,VALID,89.9076,VALID,0,VALID,23.8091,VALID,81,VALID,0,
2010-02-19, 02:37:04,VALID,1010.01,VALID,0,VALID,89.9229,VALID,0,VALID,23.8304,VALID,30,VALID,0,
2010-02-19, 02:38:04,VALID,1010.04,VALID,0,VALID,89.8924,VALID,0,VALID,23.8304,VALID,30,VALID,0,
2010-02-19, 02:39:04,VALID,1010.03,VALID,0,VALID,89.9076,VALID,0,VALID,23.8091,VALID,30,VALID,0,
2010-02-19, 02:40:04,VALID,1010.03,VALID,0,VALID,89.9229,VALID,0,VALID,23.8304,VALID,30,VALID,0,
2010-02-19, 02:41:04,VALID,1010.05,VALID,0,VALID,89.9305,VALID,0,VALID,23.8109,VALID,30,VALID,0,
2010-02-19, 02:42:04,VALID,1010.06,VALID,0,VALID,89.9229,VALID,0,VALID,23.8304,VALID,41,VALID,0,
2010-02-19, 02:43:04,VALID,1010.09,VALID,0,VALID,89.9,VALID,0,VALID,23.8304,VALID,45,VALID,0,
2010-02-19, 02:44:04,VALID,1010.11,VALID,0,VALID,89.9076,VALID,0,VALID,23.8304,VALID,45,VALID,0,
2010-02-19, 02:45:04,VALID,1010.13,VALID,0,VALID,89.9153,VALID,0,VALID,23.8286,VALID,37,VALID,0,
2010-02-19, 02:46:04,VALID,1010.18,VALID,0,VALID,89.8848,VALID,0,VALID,23.8499,VALID,37,VALID,0,
2010-02-19, 02:47:04,VALID,1010.18,VALID,0,VALID,89.8924,VALID,0,VALID,23.8304,VALID,37,VALID,0,
2010-02-19, 02:48:04,VALID,1010.21,VALID,0,VALID,89.9229,VALID,0.105969,VALID,23.7896,VALID,57,VALID,0,
2010-02-19, 02:49:04,VALID,1010.21,VALID,0,VALID,89.9153,VALID,0,VALID,23.8109,VALID,79,VALID,0,
2010-02-19, 02:50:04,VALID,1010.18,VALID,0,VALID,89.8924,VALID,0,VALID,23.8109,VALID,81,VALID,0,
2010-02-19, 02:51:04,VALID,1010.17,VALID,0,VALID,89.8848,VALID,0,VALID,23.8304,VALID,81,VALID,0,
2010-02-19, 02:52:04,VALID,1010.19,VALID,0,VALID,89.8695,VALID,0,VALID,23.8091,VALID,81,VALID,0,
2010-02-19, 02:53:04,VALID,1010.19,VALID,0,VALID,89.8848,VALID,0,VALID,23.8304,VALID,81,VALID,0,
2010-02-19, 02:54:04,VALID,1010.15,VALID,0,VALID,89.9,VALID,0.105969,VALID,23.8304,VALID,52,VALID,0,
2010-02-19, 02:55:04,VALID,1010.13,VALID,0,VALID,89.9229,VALID,0.105969,VALID,23.8109,VALID,52,VALID,0,
2010-02-19, 02:56:04,VALID,1010.08,VALID,0,VALID,89.9076,VALID,0,VALID,23.7896,VALID,52,VALID,0,
2010-02-19, 02:57:04,VALID,1010.07,VALID,0,VALID,89.9153,VALID,0,VALID,23.8109,VALID,323,VALID,0,
2010-02-19, 02:58:04,VALID,1010.04,VALID,0,VALID,89.9076,VALID,0,VALID,23.7914,VALID,329,VALID,0,
2010-02-19, 02:59:04,VALID,1010.01,VALID,0,VALID,89.9153,VALID,0,VALID,23.7914,VALID,330,VALID,0,
2010-02-19, 03:00:04,VALID,1010.03,VALID,0,VALID,89.9153,VALID,0.105969,VALID,23.7914,VALID,330,VALID,0,
2010-02-19, 03:01:04,VALID,1010.04,VALID,0,VALID,89.9229,VALID,0,VALID,23.7701,VALID,10,VALID,0,
2010-02-19, 03:02:04,VALID,1010.05,VALID,0,VALID,89.9153,VALID,0,VALID,23.772,VALID,26,VALID,0,
2010-02-19, 03:03:04,VALID,1010.05,VALID,0,VALID,89.9381,VALID,0,VALID,23.772,VALID,26,VALID,0,
2010-02-19, 03:04:04,VALID,1010.05,VALID,0,VALID,89.9153,VALID,0,VALID,23.772,VALID,26,VALID,0,
2010-02-19, 03:05:04,VALID,1010.01,VALID,0,VALID,89.9153,VALID,0,VALID,23.772,VALID,26,VALID,0,
2010-02-19, 03:06:04,VALID,1010.01,VALID,0,VALID,89.9,VALID,0,VALID,23.772,VALID,26,VALID,0,
2010-02-19, 03:07:04,VALID,1010.01,VALID,0,VALID,89.9153,VALID,0,VALID,23.772,VALID,26,VALID,0,
2010-02-19, 03:08:04,VALID,1009.99,VALID,0,VALID,89.9076,VALID,0,VALID,23.772,VALID,26,VALID,0,
2010-02-19, 03:09:04,VALID,1009.97,VALID,0,VALID,89.9153,VALID,0,VALID,23.7701,VALID,26,VALID,0,
2010-02-19, 03:10:04,VALID,1009.97,VALID,0,VALID,89.9,VALID,0,VALID,23.7914,VALID,67,VALID,0,
2010-02-19, 03:11:04,VALID,1009.98,VALID,0,VALID,89.9,VALID,0.105969,VALID,23.772,VALID,67,VALID,0,
2010-02-19, 03:12:04,VALID,1010,VALID,0,VALID,89.9229,VALID,0,VALID,23.7312,VALID,67,VALID,0,
2010-02-19, 03:13:04,VALID,1010.01,VALID,0,VALID,89.9381,VALID,0.105969,VALID,23.7117,VALID,67,VALID,0,
2010-02-19, 03:14:04,VALID,1009.97,VALID,0,VALID,89.9305,VALID,0,VALID,23.733,VALID,67,VALID,0,
2010-02-19, 03:15:04,VALID,1009.96,VALID,0,VALID,89.9305,VALID,0.105969,VALID,23.733,VALID,22,VALID,0,
2010-02-19, 03:16:04,VALID,1009.95,VALID,0,VALID,89.9305,VALID,0,VALID,23.7117,VALID,22,VALID,0,
2010-02-19, 03:17:04,VALID,1009.96,VALID,0,VALID,89.9229,VALID,0,VALID,23.7117,VALID,15,VALID,0,
2010-02-19, 03:18:04,VALID,1009.95,VALID,0,VALID,89.9381,VALID,0,VALID,23.7135,VALID,15,VALID,0,
2010-02-19, 03:19:04,VALID,1009.98,VALID,0,VALID,89.9458,VALID,0,VALID,23.6727,VALID,15,VALID,0,
2010-02-19, 03:20:04,VALID,1009.95,VALID,0,VALID,89.9458,VALID,0,VALID,23.694,VALID,15,VALID,0,
2010-02-19, 03:21:04,VALID,1009.97,VALID,0,VALID,89.9458,VALID,0,VALID,23.694,VALID,15,VALID,0,
2010-02-19, 03:22:04,VALID,1009.99,VALID,0,VALID,89.9381,VALID,0,VALID,23.694,VALID,15,VALID,0,
2010-02-19, 03:23:04,VALID,1010.01,VALID,0,VALID,89.9229,VALID,0.105969,VALID,23.6727,VALID,15,VALID,0,
2010-02-19, 03:24:04,VALID,1010.02,VALID,0,VALID,89.9381,VALID,0,VALID,23.694,VALID,15,VALID,0,
2010-02-19, 03:25:04,VALID,1010.05,VALID,0,VALID,89.9458,VALID,0,VALID,23.694,VALID,15,VALID,0,
2010-02-19, 03:26:04,VALID,1010.08,VALID,0,VALID,89.9305,VALID,0,VALID,23.6922,VALID,15,VALID,0,
2010-02-19, 03:27:04,VALID,1010.07,VALID,0,VALID,89.9,VALID,0,VALID,23.7117,VALID,86,VALID,0,
2010-02-19, 03:28:04,VALID,1010.09,VALID,0,VALID,89.8848,VALID,0,VALID,23.7117,VALID,93,VALID,0,
2010-02-19, 03:29:04,VALID,1010.08,VALID,0,VALID,89.9153,VALID,0,VALID,23.7525,VALID,100,VALID,0,
2010-02-19, 03:30:04,VALID,1010.1,VALID,0,VALID,89.9,VALID,0.105969,VALID,23.7135,VALID,100,VALID,0,
2010-02-19, 03:31:04,VALID,1010.07,VALID,0,VALID,89.9458,VALID,0,VALID,23.7135,VALID,100,VALID,0,
2010-02-19, 03:32:04,VALID,1010.05,VALID,0,VALID,89.9305,VALID,0,VALID,23.7117,VALID,100,VALID,0,
2010-02-19, 03:33:04,VALID,1010.06,VALID,0,VALID,89.9229,VALID,0,VALID,23.694,VALID,108,VALID,0,
2010-02-19, 03:34:04,VALID,1010.04,VALID,0,VALID,89.9534,VALID,0,VALID,23.694,VALID,109,VALID,0,
2010-02-19, 03:35:04,VALID,1010.01,VALID,0,VALID,89.9534,VALID,0,VALID,23.6532,VALID,109,VALID,0,
2010-02-19, 03:36:04,VALID,1010.01,VALID,0,VALID,89.9458,VALID,0,VALID,23.6745,VALID,109,VALID,0,
2010-02-19, 03:37:04,VALID,1010.01,VALID,0,VALID,89.9229,VALID,0.105969,VALID,23.6727,VALID,114,VALID,0,
2010-02-19, 03:38:04,VALID,1009.97,VALID,0,VALID,89.9381,VALID,0.105969,VALID,23.6532,VALID,114,VALID,0,
2010-02-19, 03:39:04,VALID,1009.99,VALID,0,VALID,89.9381,VALID,0,VALID,23.655,VALID,114,VALID,0,
2010-02-19, 03:40:04,VALID,1009.99,VALID,0,VALID,89.9305,VALID,0.105969,VALID,23.6338,VALID,114,VALID,0,
2010-02-19, 03:41:04,VALID,1010.01,VALID,0,VALID,89.9381,VALID,0.105969,VALID,23.6161,VALID,114,VALID,0,
2010-02-19, 03:42:04,VALID,1010.06,VALID,0,VALID,89.9534,VALID,0,VALID,23.6161,VALID,114,VALID,0,
2010-02-19, 03:43:04,VALID,1010.08,VALID,0,VALID,89.961,VALID,0.105969,VALID,23.5948,VALID,116,VALID,0,
2010-02-19, 03:44:04,VALID,1010.11,VALID,0,VALID,89.9534,VALID,0.105969,VALID,23.5966,VALID,119,VALID,0,
2010-02-19, 03:45:04,VALID,1010.14,VALID,0,VALID,89.961,VALID,0,VALID,23.6143,VALID,126,VALID,0,
2010-02-19, 03:46:04,VALID,1010.2,VALID,0,VALID,89.9305,VALID,0.105969,VALID,23.6356,VALID,132,VALID,0,
2010-02-19, 03:47:04,VALID,1010.22,VALID,0,VALID,89.9305,VALID,0,VALID,23.655,VALID,132,VALID,0,
2010-02-19, 03:48:04,VALID,1010.24,VALID,0,VALID,89.9229,VALID,0.105969,VALID,23.6745,VALID,132,VALID,0,
2010-02-19, 03:49:04,VALID,1010.26,VALID,0,VALID,89.9381,VALID,0,VALID,23.6356,VALID,151,VALID,0,
2010-02-19, 03:50:04,VALID,1010.28,VALID,0,VALID,89.9229,VALID,0.105969,VALID,23.655,VALID,149,VALID,0,
2010-02-19, 03:51:04,VALID,1010.29,VALID,0,VALID,89.9229,VALID,0,VALID,23.6338,VALID,147,VALID,0,
2010-02-19, 03:52:04,VALID,1010.31,VALID,0,VALID,89.9305,VALID,0.105969,VALID,23.6356,VALID,147,VALID,0,
2010-02-19, 03:53:04,VALID,1010.3,VALID,0,VALID,89.9534,VALID,0.105969,VALID,23.6356,VALID,147,VALID,0,
2010-02-19, 03:54:04,VALID,1010.31,VALID,0,VALID,89.9381,VALID,0.105969,VALID,23.5948,VALID,147,VALID,0,
2010-02-19, 03:55:04,VALID,1010.3,VALID,0,VALID,89.9534,VALID,0.105969,VALID,23.6356,VALID,147,VALID,0,
2010-02-19, 03:56:04,VALID,1010.3,VALID,0,VALID,89.9229,VALID,0.105969,VALID,23.6338,VALID,147,VALID,0,
2010-02-19, 03:57:04,VALID,1010.3,VALID,0,VALID,89.9153,VALID,0.105969,VALID,23.6356,VALID,147,VALID,0,